TimeEDT,TemperatureF,Dew PointF,Humidity,Sea Level PressureIn,VisibilityMPH,Wind Direction,Wind SpeedMPH,Gust SpeedMPH,PrecipitationIn,Events,Conditions,WindDirDegrees,DateUTC
12:15 AM,77.0,73.4,89,29.97,7.0,Calm,Calm,-,N/A,,Clear,0,2013-08-30 04:15:00
12:35 AM,75.2,73.4,94,29.97,7.0,Calm,Calm,-,N/A,,Clear,0,2013-08-30 04:35:00
12:55 AM,75.2,73.4,94,29.97,7.0,Calm,Calm,-,N/A,,Clear,0,2013-08-30 04:55:00
1:15 AM,73.4,73.4,100,29.97,7.0,Calm,Calm,-,N/A,,Clear,0,2013-08-30 05:15:00
1:55 AM,77.0,73.4,89,29.97,10.0,NNW,3.5,-,N/A,,Scattered Clouds,330,2013-08-30 05:55:00
2:15 AM,77.0,73.4,89,29.97,10.0,Calm,Calm,-,N/A,,Clear,0,2013-08-30 06:15:00
2:35 AM,77.0,73.4,89,29.96,10.0,Calm,Calm,-,N/A,,Clear,0,2013-08-30 06:35:00
3:15 AM,77.0,73.4,89,29.95,10.0,Calm,Calm,-,N/A,,Clear,0,2013-08-30 07:15:00
3:35 AM,77.0,73.4,89,29.95,10.0,WNW,3.5,-,N/A,,Clear,300,2013-08-30 07:35:00
3:55 AM,77.0,73.4,89,29.95,10.0,Calm,Calm,-,N/A,,Clear,0,2013-08-30 07:55:00
4:15 AM,73.4,73.4,100,29.95,7.0,Calm,Calm,-,N/A,,Clear,0,2013-08-30 08:15:00
4:35 AM,73.4,73.4,100,29.95,7.0,Calm,Calm,-,N/A,,Mostly Cloudy,0,2013-08-30 08:35:00
4:55 AM,73.4,73.4,100,29.95,7.0,Calm,Calm,-,N/A,,Mostly Cloudy,0,2013-08-30 08:55:00
5:15 AM,73.4,73.4,100,29.95,7.0,Calm,Calm,-,N/A,,Scattered Clouds,0,2013-08-30 09:15:00
5:35 AM,73.4,73.4,100,29.95,7.0,West,3.5,-,N/A,,Scattered Clouds,270,2013-08-30 09:35:00
5:55 AM,73.4,73.4,100,29.95,7.0,Calm,Calm,-,N/A,,Scattered Clouds,0,2013-08-30 09:55:00
6:15 AM,73.4,73.4,100,29.95,5.0,Calm,Calm,-,N/A,,Mostly Cloudy,0,2013-08-30 10:15:00
6:35 AM,73.4,73.4,100,29.95,7.0,Calm,Calm,-,N/A,,Scattered Clouds,0,2013-08-30 10:35:00
6:55 AM,73.4,73.4,100,29.95,7.0,Calm,Calm,-,N/A,,Clear,0,2013-08-30 10:55:00
7:15 AM,73.4,73.4,100,29.96,7.0,Calm,Calm,-,N/A,,Clear,0,2013-08-30 11:15:00
7:35 AM,73.4,73.4,100,29.97,4.0,Calm,Calm,-,N/A,,Scattered Clouds,0,2013-08-30 11:35:00
7:55 AM,73.4,73.4,100,29.97,5.0,Calm,Calm,-,N/A,,Scattered Clouds,0,2013-08-30 11:55:00
8:15 AM,75.2,73.4,94,29.98,5.0,West,3.5,-,N/A,,Mostly Cloudy,280,2013-08-30 12:15:00
8:35 AM,75.2,73.4,94,29.98,5.0,West,3.5,-,N/A,,Overcast,270,2013-08-30 12:35:00
8:55 AM,75.2,73.4,94,29.99,5.0,Calm,Calm,-,N/A,,Mostly Cloudy,0,2013-08-30 12:55:00
10:15 AM,78.8,73.4,83,30.01,7.0,Calm,Calm,-,N/A,,Mostly Cloudy,0,2013-08-30 14:15:00
10:35 AM,80.6,75.2,84,30.01,7.0,Calm,Calm,-,N/A,,Overcast,0,2013-08-30 14:35:00
10:55 AM,80.6,75.2,84,30.01,7.0,Calm,Calm,-,N/A,,Overcast,0,2013-08-30 14:55:00
11:15 AM,82.4,77.0,84,30.00,10.0,Calm,Calm,-,N/A,,Mostly Cloudy,0,2013-08-30 15:15:00
11:35 AM,82.4,77.0,84,30.00,7.0,Calm,Calm,-,N/A,,Clear,0,2013-08-30 15:35:00
11:55 AM,84.2,77.0,79,30.00,10.0,Calm,Calm,-,N/A,,Scattered Clouds,0,2013-08-30 15:55:00
12:15 PM,86.0,77.0,74,30.00,10.0,Calm,Calm,-,N/A,,Scattered Clouds,0,2013-08-30 16:15:00
12:35 PM,86.0,77.0,74,29.99,10.0,Calm,Calm,-,N/A,,Scattered Clouds,0,2013-08-30 16:35:00
12:55 PM,87.8,77.0,70,29.98,10.0,Calm,Calm,-,N/A,,Scattered Clouds,0,2013-08-30 16:55:00
1:15 PM,87.8,77.0,70,29.98,10.0,Calm,Calm,-,N/A,,Scattered Clouds,0,2013-08-30 17:15:00
1:35 PM,87.8,77.0,70,29.97,10.0,Calm,Calm,-,N/A,,Scattered Clouds,0,2013-08-30 17:35:00
1:55 PM,87.8,78.8,75,29.96,10.0,Calm,Calm,-,N/A,,Scattered Clouds,0,2013-08-30 17:55:00
2:15 PM,89.6,78.8,70,29.95,10.0,SW,3.5,-,N/A,,Mostly Cloudy,220,2013-08-30 18:15:00
2:35 PM,87.8,77.0,70,29.95,10.0,Calm,Calm,-,N/A,,Overcast,0,2013-08-30 18:35:00
2:55 PM,91.4,77.0,63,29.94,10.0,NNE,3.5,-,N/A,,Mostly Cloudy,30,2013-08-30 18:55:00
3:15 PM,89.6,77.0,66,29.93,10.0,Calm,Calm,-,N/A,,Mostly Cloudy,0,2013-08-30 19:15:00
3:35 PM,91.4,75.2,59,29.92,10.0,NNW,6.9,-,N/A,,Mostly Cloudy,330,2013-08-30 19:35:00
3:55 PM,82.4,78.8,89,29.91,7.0,East,3.5,-,N/A,Rain,Light Rain,80,2013-08-30 19:55:00
4:15 PM,86.0,78.8,79,29.90,10.0,Calm,Calm,-,N/A,,Mostly Cloudy,0,2013-08-30 20:15:00
4:35 PM,87.8,78.8,75,29.90,10.0,South,3.5,-,N/A,,Scattered Clouds,180,2013-08-30 20:35:00
4:55 PM,89.6,77.0,66,29.90,10.0,WNW,4.6,-,N/A,,Mostly Cloudy,300,2013-08-30 20:55:00
5:15 PM,82.4,80.6,94,29.89,2.5,ENE,3.5,-,N/A,Rain,Rain,70,2013-08-30 21:15:00
5:35 PM,82.4,80.6,94,29.89,5.0,Calm,Calm,-,N/A,,Mostly Cloudy,0,2013-08-30 21:35:00
5:55 PM,87.8,82.4,84,29.89,7.0,SW,3.5,-,N/A,,Scattered Clouds,220,2013-08-30 21:55:00
6:15 PM,89.6,80.6,75,29.88,10.0,West,5.8,-,N/A,,Scattered Clouds,260,2013-08-30 22:15:00
6:35 PM,86.0,80.6,84,29.89,10.0,SSW,3.5,-,N/A,Thunderstorm,Scattered Clouds,200,2013-08-30 22:35:00
6:55 PM,82.4,77.0,84,29.88,10.0,West,9.2,-,N/A,Thunderstorm,Thunderstorm,270,2013-08-30 22:55:00
7:15 PM,80.6,73.4,79,29.91,7.0,NE,5.8,18.4,N/A,Thunderstorm,Thunderstorm,50,2013-08-30 23:15:00
7:35 PM,73.4,71.6,94,29.94,3.0,Calm,Calm,-,N/A,Rain-Thunderstorm,Thunderstorms and Rain,0,2013-08-30 23:35:00
7:55 PM,71.6,71.6,100,29.93,7.0,SSE,5.8,-,N/A,Rain-Thunderstorm,Light Thunderstorms and Rain,160,2013-08-30 23:55:00
8:15 PM,71.6,71.6,100,29.93,10.0,South,4.6,-,N/A,Rain-Thunderstorm,Light Thunderstorms and Rain,180,2013-08-31 00:15:00
8:35 PM,71.6,71.6,100,29.94,10.0,East,11.5,19.6,N/A,Rain-Thunderstorm,Light Thunderstorms and Rain,90,2013-08-31 00:35:00
8:55 PM,73.4,73.4,100,29.95,4.0,NE,5.8,-,N/A,Rain-Thunderstorm,Heavy Thunderstorms and Rain,50,2013-08-31 00:55:00
9:15 PM,73.4,73.4,100,29.94,2.5,NNW,6.9,-,N/A,Rain-Thunderstorm,Heavy Thunderstorms and Rain,340,2013-08-31 01:15:00
9:35 PM,73.4,73.4,100,29.94,10.0,Calm,Calm,-,N/A,Rain-Thunderstorm,Light Thunderstorms and Rain,0,2013-08-31 01:35:00
9:55 PM,73.4,71.6,94,29.94,10.0,East,5.8,-,N/A,,Light Drizzle,80,2013-08-31 01:55:00
10:15 PM,73.4,71.6,94,29.94,10.0,Calm,Calm,-,N/A,,Scattered Clouds,0,2013-08-31 02:15:00
10:35 PM,71.6,71.6,100,29.95,7.0,Calm,Calm,-,N/A,,Scattered Clouds,0,2013-08-31 02:35:00
10:55 PM,71.6,71.6,100,29.94,7.0,Calm,Calm,-,N/A,,Scattered Clouds,0,2013-08-31 02:55:00
11:15 PM,71.6,71.6,100,29.93,10.0,Calm,Calm,-,N/A,,Clear,0,2013-08-31 03:15:00
11:35 PM,71.6,71.6,100,29.94,7.0,Calm,Calm,-,N/A,,Clear,0,2013-08-31 03:35:00
11:55 PM,71.6,71.6,100,29.94,10.0,Calm,Calm,-,N/A,,Clear,0,2013-08-31 03:55:00